Regional Weather Roundup
Issued by NWS Charleston, SC

Current Version | Previous Version | Graphics & Text | Print | Product List | Glossary On
Versions: 1 2 3 4 5 6 7 8 9 10 11 12 13 14 15 16 17 18 19 20 21 22 23 24 25 26 27 28 29 30 31 32 33 34 35 36 37 38 39 40 41 42 43 44 45 46 47 48 49 50
000
ASUS42 KCHS 222210
RWRCHS
REGIONAL WEATHER ROUNDUP
NATIONAL WEATHER SERVICE CHARLESTON SC
600 PM EDT WED OCT 22 2014

NOTE: "FAIR" INDICATES FEW OR NO CLOUDS BELOW 12,000 FEET WITH NO
SIGNIFICANT WEATHER AND/OR OBSTRUCTIONS TO VISIBILITY.

NOT ALL STATIONS ARE QUALITY CONTROLLED BY THE NATIONAL
WEATHER SERVICE. USE DATA WITH CAUTION...ESPECIALLY
DEWPOINT OBSERVATIONS.

SCZ027-030-031-034>040-042>050-222300-
...SOUTH CAROLINA...

CITY           SKY/WX    TMP DP  RH WIND       PRES   REMARKS
N CHARLESTON   CLEAR     66  41  40 N12       30.01R
WATERFRONT PRK   N/A     68 N/A N/A NW9G16      N/A
FORT JOHNSON   NOT AVBL
JOHNS ISLAND   CLEAR     66  45  45 CALM      30.01R
PINOPOLIS      NOT AVBL
MONCKS CORNER  FAIR      64  50  59 CALM      30.01R
SUMMERVILLE    FAIR      64  46  52 NW3       30.02R
BEAUFORT MCAS  CLEAR     69  43  38 NW6       30.02R
BEAUFORT ARPT  FAIR      68  45  42 NW7       30.01R
HILTON HEAD IS NOT AVBL
GEORGETOWN     NOT AVBL
WALTERBORO     CLEAR     68  37  32 NW5       30.03R
ORANGEBURG     CLEAR     66  41  40 NW6       30.02S
BARNWELL       FAIR      66  41  39 N6        30.04R
AIKEN          FAIR      64  43  45 NW6       30.06S
MANNING        FAIR      68  45  42 CALM      30.01R
KINGSTREE      NOT AVBL
COLUMBIA       CLEAR     68  39  34 N6        30.02S
SUMTER         CLEAR     65  44  45 NW7       30.00S
FLORENCE       CLEAR     67  42  40 N9        30.00R
MYRTLE BEACH   PTCLDY    66  43  42 NW9       29.98R
N MYRTLE BEACH CLEAR     66  45  46 VRB5      29.97R

$$

GAZ063-065-086>088-099>101-113>116-118-119-134-136>141-150-222300-
...GEORGIA...

CITY           SKY/WX    TMP DP  RH WIND       PRES   REMARKS
SAVANNAH ARPT  CLEAR     70  42  36 N7        30.02R
HUNTER AAF     CLEAR     69  44  41 NW9       30.00R
FORT STEWART   CLEAR     69  43  38 N6        30.01R
STATESBORO     NOT AVBL
SYLVANIA       CLEAR     74  46  36 N5        30.03S
CLAXTON        FAIR      70  43  37 NW3       30.02S
THOMSON        CLEAR     67  51  56 CALM      30.09R
AUGUSTA-BUSH   CLEAR     68  40  35 N8        30.03R
AUGUSTA-DANIEL CLEAR     69  41  36 N5        30.04S
SWAINSBORO     FAIR      72  41  33 MISG      30.03S
VIDALIA        CLEAR     70  45  40 CALM      30.03R
ALMA           CLEAR     71  44  37 N3        30.02R
WAYCROSS       CLEAR     73  48  41 NE7       30.02R
JESUP          FAIR      72  45  37 N3        30.03R
BRUNSWICK      CLEAR     70  46  43 NW6       30.03R
SAINT SIMONS   CLEAR     70  45  40 NW7       30.01R

$$

SCZ027-028-034-036>038-045-046-048>050-GAZ119-141-222300-
...LAKE AND SUPPLEMENTAL COASTAL OBSERVATIONS...

STATION/POSITION TIME  TEMP    WIND        PRES    WAVE   SWELL
                       AIR SEA DIR/SP/G            HT/PER HT/PER/DIR
                 (UTC) (F)     (DEG/KT/KT) (MB)    (FT/S) (FT/S/D)
UPR LAKE MARION  NOT AVBL
WINYAH BAY       2100   66     320/  8     1015.0S
LAKE MURRAY      2100   68     340/  6/ 10 1016.3S
ACE BASIN NERRS  2100   70     350/  3     1016.0S
FORT PULASKI     2200   68     330/  6/  8 1016.3R
SAPELO ISLAND    NOT AVBL

$$

ANZ835-935-AMZ111-154-330-350-352-354-374-450-454-472-222300-
...C-MAN AND BUOY OBSERVATIONS...

STATION/POSITION TIME  TEMP    WIND        PRES    WAVE   SWELL
                       AIR SEA DIR/SP/G            HT/PER HT/PER/DIR
                 (UTC) (F)     (DEG/KT/KT) (MB)    (FT/S) (FT/S/D)
FOLLY BEACH CMAN 2100   67     320/  4/  7 1016.2S
BUOY 41004       2200   67 79  340/ 12/ 16 1014.8F   3/ 5   2/ 6
BUOY 41008       2200   67 76  350/  4/ 10 1016.4R   3/ 6   2/ 50/ 6
5E ST. MARYS GA  2200      77                N/A     3/ 6
FRYING PAN BUOY  2200   66 75  320/ 14/ 19 1014.8R   3/ 4   2/130/11
BUOY 41025       2200   62     310/ 27/ 31 1010.1R   6/ 6   2/ 60/10
CAPE LOOKOUT NC  2100   62     310/ 21/ 27 1012.4R
BUOY 41002       2057   71 78  310/ 19/ 23 1012.2R   6/ 6   2/120/10
BUOY 41010       2200   77 80  340/ 16/ 17 1013.1R   3/ 9   2/ 90/ 9
BUOY 41012       NOT AVBL
ST AUGUSTINE FL  2200   69      10/ 14/ 16 1016.4R
CAPERS NEARSHORE NOT AVBL
FRIPP NEARSHORE  NOT AVBL


$$



USA.gov is the U.S. government's official web portal to all federal, state and local government web resources and services.